Regional Weather Roundup
Issued by NWS

Home | Current Version | Previous Version | Graphics & Text | Print | Product List | Glossary On
Versions: 1 2 3 4 5 6 7 8 9 10 11 12 13 14 15 16 17 18 19 20 21 22 23 24 25 26 27 28 29 30 31 32 33 34 35 36 37 38 39 40 41 42 43 44 45 46 47 48 49 50
000
ASUS44 KMEG 311700
RWRTN
TENNESSEE HOURLY STATE WEATHER ROUNDUP
NATIONAL WEATHER SERVICE MEMPHIS TN
1200 PM CDT TUE MAY 31 2016

TNZ002-004-019-021-049-052-054-088>092-311800-
WEST TENNESSEE

CITY           SKY/WX    TMP DP  RH WIND       PRES   REMARKS
MEMPHIS INTL   CLOUDY    77  66  68 SE5       29.98S
NWS MEMPHIS      N/A     75 N/A N/A MISG        N/A
JACKSON        CLOUDY    78  67  68 CALM      29.99F
DYERSBURG      CLOUDY    75  66  73 CALM      29.98F
UNION CITY     SUNNY     79  64  61 CALM      29.97F
PARIS          SUNNY     77  66  69 VRB3      29.99F
LEXINGTON      SUNNY     79  70  73 SW5       29.99S
$$

TNZ008-025-027-028-033-062-065-066-311800-
NORTH MIDDLE TENNESSEE

CITY           SKY/WX    TMP DP  RH WIND       PRES   REMARKS
NASHVILLE      PTSUNNY   87  57  35 E8        29.99F
CLARKSVILLE    CLOUDY    84  61  45 SE5       29.98F
COOKEVILLE     SUNNY     88  64  45 N5        29.99S
CROSSVILLE     SUNNY     82  61  48 VRB6      30.04F
$$

TNZ061-075-076-078-094-096-097-311800-
SOUTH MIDDLE TENNESSEE

CITY           SKY/WX    TMP DP  RH WIND       PRES   REMARKS
TULLAHOMA      SUNNY     84  55  37 NW3       30.01S
WINCHESTER     SUNNY     86  59  39 VRB3      29.99S
MCMINNVILLE    SUNNY     84  63  48 VRB3      30.00S
COLUMBIA       SUNNY     88  63  42 W5        29.97S
SHELBYVILLE    SUNNY     88  64  45 CALM      30.00F
$$

TNZ017-018-042-046-047-311800-
NORTHEAST TENNESSEE

CITY           SKY/WX    TMP DP  RH WIND       PRES   REMARKS
TRI CITIES     PTSUNNY   84  64  50 VRB3      30.01F
$$

TNZ012-013-036-069-073-074-311800-
CENTRAL EAST TENNESSEE

CITY           SKY/WX    TMP DP  RH WIND       PRES   REMARKS
KNOXVILLE      CLOUDY    82  63  52 N3        29.98F
OAK RIDGE      SUNNY     85  63  47 VRB6      30.00F
GATLINBURG       N/A     82  63  51 VRB6      29.98F
$$

TNZ083-085-099-311800-
SOUTHEAST TENNESSEE

CITY           SKY/WX    TMP DP  RH WIND       PRES   REMARKS
CHATTANOOGA    PTSUNNY   87  60  40 NW3       29.97F
$$

SKY/WX REPORTED AS FAIR MEANS FEW OR NO CLOUDS BELOW
12 THOUSAND FEET.




USA.gov is the U.S. government's official web portal to all federal, state and local government web resources and services.